TimeEDT,TemperatureF,Dew PointF,Humidity,Sea Level PressureIn,VisibilityMPH,Wind Direction,Wind SpeedMPH,Gust SpeedMPH,PrecipitationIn,Events,Conditions,WindDirDegrees,DateUTC
12:54 AM,37.4,8.6,30,-9999,85.0,South,36.8,-,N/A,,Mostly Cloudy,170,2012-10-19 04:54:00
1:51 AM,37.4,5.0,26,-9999,80.0,South,38.0,-,N/A,,Mostly Cloudy,180,2012-10-19 05:51:00
2:47 AM,33.8,33.8,100,-9999,0.1,South,38.0,-,N/A,Fog,Fog,190,2012-10-19 06:47:00
3:54 AM,37.4,15.8,41,-9999,80.0,South,36.8,-,N/A,,Mostly Cloudy,190,2012-10-19 07:54:00
4:50 AM,35.6,35.6,100,-9999,0.1,South,33.4,-,N/A,Fog,Fog,180,2012-10-19 08:50:00
5:47 AM,37.4,37.4,100,-9999,0.0,South,38.0,-,N/A,Fog,Fog,180,2012-10-19 09:47:00
6:51 AM,37.4,37.4,100,-9999,0.0,South,36.8,46.0,N/A,Fog,Fog,170,2012-10-19 10:51:00
7:48 AM,39.2,39.2,100,-9999,0.0,SSE,39.1,42.6,N/A,Fog,Fog,150,2012-10-19 11:48:00
8:52 AM,39.2,39.2,100,-9999,0.0,SE,35.7,47.2,N/A,Fog-Rain,Light Rain,140,2012-10-19 12:52:00
9:52 AM,35.6,35.6,100,-9999,0.0,SE,42.6,-,N/A,Fog-Rain,Light Rain,130,2012-10-19 13:52:00
10:49 AM,35.6,35.6,100,-9999,0.0,ESE,50.6,-,N/A,Fog-Rain,Light Rain,120,2012-10-19 14:49:00
11:52 AM,35.6,35.6,100,-9999,0.0,SE,54.1,-,N/A,Fog-Rain,Light Rain,130,2012-10-19 15:52:00
12:48 PM,37.4,37.4,100,-9999,0.0,SE,57.5,70.2,N/A,Fog-Rain,Light Rain,130,2012-10-19 16:48:00
2:51 PM,39.2,39.2,100,-9999,0.0,ESE,55.2,65.6,N/A,Fog-Rain,Light Rain,120,2012-10-19 18:51:00
3:49 PM,41.0,41.0,100,-9999,0.0,ESE,64.4,70.2,N/A,Fog-Rain,Light Rain,120,2012-10-19 19:49:00
4:51 PM,39.2,39.2,100,-9999,0.0,ESE,66.7,-,N/A,Fog-Rain,Rain,120,2012-10-19 20:51:00
5:48 PM,41.0,41.0,100,-9999,0.0,ESE,63.3,69.0,N/A,Fog-Rain,Rain,120,2012-10-19 21:48:00
6:50 PM,41.0,41.0,100,-9999,0.0,SE,57.5,66.7,N/A,Fog-Rain,Rain,130,2012-10-19 22:50:00
7:48 PM,41.0,41.0,100,-9999,0.0,SE,51.8,-,N/A,Fog-Rain,Rain,130,2012-10-19 23:48:00
8:48 PM,41.0,41.0,100,-9999,0.0,SE,50.6,57.5,N/A,Fog-Rain,Rain,130,2012-10-20 00:48:00
9:48 PM,46.4,46.4,100,-9999,0.0,SSE,48.3,61.0,N/A,Fog-Rain,Light Rain,150,2012-10-20 01:48:00
10:50 PM,48.2,48.2,100,-9999,0.0,South,36.8,42.6,N/A,Fog,Fog,170,2012-10-20 02:50:00
11:54 PM,46.4,46.4,100,-9999,0.0,South,36.8,-,N/A,Fog,Fog,180,2012-10-20 03:54:00